North Plainfield Burying Ground, New Jersey, United States
Lat: 40.64N, Lon: 74.46W
Wx Zone: NJZ010
Local Info
Past Weather Observations for Today

NOTE: This archive is for the closest National Weather Service station to North Plainfield Burying Ground. Information may differ from the station used for current weather conditions.

Click here for Long-term Archive

Time Weather Temperature Dewpoint Humidity Pressure Winds Precip Visibility
12:53
Clear
86°F / 30°C 50°F / 10°C 29% 29.95 in
(1014 mb)
Variable 5.8 mph
(Variable 9 kph)
- 10SM
11:53
Clear
84°F / 29°C 54°F / 12°C 35% 29.95 in
(1014 mb)
NNW 4.6 mph
(NNW 7 kph)
- 10SM
10:53
Partly Cloudy
82°F / 28°C 57°F / 14°C 42% 29.95 in
(1014 mb)
N 8.1 mph
(N 13 kph)
- 10SM
09:53
Mostly Cloudy
82°F / 28°C 63°F / 17°C 51% 29.98 in
(1015 mb)
Variable 5.8 mph
(Variable 9 kph)
- 10SM
08:53
Clear
81°F / 27°C 61°F / 16°C 51% 29.98 in
(1015 mb)
NNE 9.2 mph
(NNE 15 kph)
- 10SM
07:53
Clear
77°F / 25°C 64°F / 18°C 65% 29.95 in
(1014 mb)
Variable 5.8 mph
(Variable 9 kph)
- 10SM
06:53
Clear
72°F / 22°C 66°F / 19°C 83% 29.95 in
(1014 mb)
NW 4.6 mph
(NW 7 kph)
- 8SM
05:53
Partly Cloudy
66°F / 19°C 66°F / 19°C 100% 29.95 in
(1014 mb)
Calm - 7SM
05:49
Partly Cloudy
66°F / 19°C 66°F / 19°C 100% 29.95 in
(1014 mb)
Calm - 7SM
05:40
Mostly Cloudy
Fog And Mist
66°F / 19°C 64°F / 18°C 94% 29.95 in
(1014 mb)
Calm - 6SM
05:30
Overcast
Fog And Mist
66°F / 19°C 64°F / 18°C 94% 29.95 in
(1014 mb)
Calm - 2 1/2SM
05:23
Obscured
Fog
66°F / 19°C 64°F / 18°C 94% 29.95 in
(1014 mb)
Calm - 1/2SM
05:16
Obscured
Fog And Mist
64°F / 18°C 64°F / 18°C 100% 29.95 in
(1014 mb)
Calm - 1SM
05:04
Obscured
Fog And Mist
64°F / 18°C 63°F / 17°C 94% 29.95 in
(1014 mb)
Calm - 3/4SM
05:02
Mostly Cloudy
Fog And Mist
64°F / 18°C 64°F / 18°C 100% 29.95 in
(1014 mb)
Calm - 1 3/4SM
04:53
Mostly Cloudy
Fog And Mist
66°F / 19°C 64°F / 18°C 94% 29.95 in
(1014 mb)
Calm - 2 1/2SM
04:49
Obscured
Fog And Mist
66°F / 19°C 64°F / 18°C 94% 29.92 in
(1013 mb)
Calm - 1SM
04:39
Obscured
Fog
66°F / 19°C 64°F / 18°C 94% 29.95 in
(1014 mb)
Calm - 1/4SM
04:33
Overcast
Fog And Mist
64°F / 18°C 64°F / 18°C 100% 29.95 in
(1014 mb)
Calm - 1SM
04:26
Overcast
Fog And Mist
64°F / 18°C 64°F / 18°C 100% 29.92 in
(1013 mb)
Calm - 3/4SM
04:00
Mostly Cloudy
Fog
66°F / 19°C 64°F / 18°C 94% 29.92 in
(1013 mb)
Calm - 1/2SM
03:53
Mostly Cloudy
Fog
64°F / 18°C 64°F / 18°C 100% 29.92 in
(1013 mb)
Calm - 1/2SM
03:49
Obscured
Fog And Mist
64°F / 18°C 64°F / 18°C 100% 29.92 in
(1013 mb)
Calm - 3/4SM
03:47
Mostly Cloudy
Fog And Mist
66°F / 19°C 64°F / 18°C 94% 29.92 in
(1013 mb)
Calm - 2SM
03:40
Partly Cloudy
Fog And Mist
66°F / 19°C 64°F / 18°C 94% 29.92 in
(1013 mb)
Calm - 6SM
03:21
Mostly Cloudy
Fog And Mist
66°F / 19°C 64°F / 18°C 94% 29.92 in
(1013 mb)
SSE 3.5 mph
(SSE 6 kph)
- 5SM
03:13
Overcast
Fog And Mist
64°F / 18°C 64°F / 18°C 100% 29.92 in
(1013 mb)
Calm - 2SM
03:08
Overcast
Fog And Mist
64°F / 18°C 64°F / 18°C 100% 29.92 in
(1013 mb)
Calm - 3/4SM
02:53
Obscured
Fog
66°F / 19°C 64°F / 18°C 94% 29.92 in
(1013 mb)
Calm - 1/4SM
02:49
Obscured
Fog
66°F / 19°C 64°F / 18°C 94% 29.92 in
(1013 mb)
Calm - 1/2SM
02:40
Mostly Cloudy
Fog And Mist
66°F / 19°C 64°F / 18°C 94% 29.92 in
(1013 mb)
Calm - 1 3/4SM
02:32
Partly Cloudy
Fog And Mist
66°F / 19°C 64°F / 18°C 94% 29.92 in
(1013 mb)
Calm - 4SM
02:28
Partly Cloudy
Fog And Mist
66°F / 19°C 64°F / 18°C 94% 29.92 in
(1013 mb)
Calm - 1 1/4SM
02:03
Obscured
Fog
66°F / 19°C 64°F / 18°C 94% 29.92 in
(1013 mb)
Calm - 1/2SM
01:55
Partly Cloudy
Fog And Mist
66°F / 19°C 64°F / 18°C 94% 29.95 in
(1014 mb)
Calm - 1SM
01:53
Obscured
Fog And Mist
66°F / 19°C 64°F / 18°C 94% 29.95 in
(1014 mb)
Calm - 3/4SM
01:51
Obscured
Fog And Mist
66°F / 19°C 64°F / 18°C 94% 29.95 in
(1014 mb)
Calm - 3/4SM
01:46
Obscured
Fog And Mist
66°F / 19°C 64°F / 18°C 94% 29.92 in
(1013 mb)
Calm - 1SM
01:37
Mostly Cloudy
Fog And Mist
66°F / 19°C 64°F / 18°C 94% 29.92 in
(1013 mb)
Calm - 1SM
01:23
Partly Cloudy
Fog And Mist
70°F / 21°C 66°F / 19°C 88% 29.92 in
(1013 mb)
Calm - 3/4SM
01:16
Partly Cloudy
Fog And Mist
66°F / 19°C 66°F / 19°C 100% 29.92 in
(1013 mb)
Calm - 1 3/4SM
00:53
Mostly Cloudy
70°F / 21°C 66°F / 19°C 88% 29.92 in
(1013 mb)
Calm - 9SM
00:46
Mostly Cloudy
70°F / 21°C 68°F / 20°C 94% 29.92 in
(1013 mb)
Calm - 9SM
00:13
Mostly Cloudy
70°F / 21°C 68°F / 20°C 94% 29.95 in
(1014 mb)
Calm - 9SM
Time Weather Temperature Dewpoint Humidity Pressure Winds Precip Visibility


Weather for websites

WeatherForYou.com, LLC is not responsible for any damages or problems caused by this service. Current weather conditions are obtained from the closest station including government and personal stations which may have varying degrees of accuracy. Weather forecasts are derived from the NOAA NDFD. Like all things, this site belongs to Jesus Christ... He just trusts us to maintain it. If you have any questions or comments email webmaster@weatherforyou.com

Copyright © 2016, WeatherForYou.com LLC. All rights reserved.